Location: Góry Miechowskie
(50.3599°N, 20.1803°E)
Time: 02:18:42
(UTC+00:00)

Vanguard 2 Rocket - Pass Details

Date: 19 September 2024
Orbit: 553 x 3298 km, 32.9° (Epoch: 14 October)

Event Time Altitude Azimuth Distance (km) Brightness Sun altitude
Exits shadow 00:55:35 35° 178° (S) 3,099 9.2 -30.0°
Maximum altitude 00:56:31 35° 171° (S) 3,162 9.2 -29.9°
Drops below altitude 10° 01:10:37 10° 115° (ESE) 5,814 11.2 -28.3°
Sets 01:16:17 0° 108° (ESE) 7,091 11.8 -27.7°
